Theta_e
291 292 291 291 290 290 290 290 291 291 292 293 294 294 293 294 295 297 297 306 307 309 312 314 316 318 319 320 324 331 335 340 342 344 344 344 344 344 344 344 344 344 341
290 290 290 290 290 289 289 289 289 289 290 291 292 292 292 293 294 295 296 297 304 306 308 311 313 315 317 318 320 322 330 336 339 341 343 343 342 342 343 343 343 342 340
289 289 289 288 288 288 289 288 289 289 288 290 289 291 292 293 294 294 294 295 297 303 305 308 310 312 314 316 318 319 321 326 335 338 340 341 342 341 341 342 341 341 339
289 288 288 288 288 288 287 287 287 287 287 287 287 288 289 291 291 292 292 293 294 297 301 305 307 309 311 313 314 316 317 320 326 334 336 339 341 341 340 341 340 340 339
289 287 287 287 287 287 286 286 286 285 285 286 287 288 288 288 289 291 292 293 294 296 297 302 307 307 308 310 313 315 316 317 317 321 328 335 338 339 340 339 339 340 339
288 287 286 286 287 286 285 286 285 285 285 285 287 286 286 288 288 288 289 292 294 296 297 298 299 300 306 308 311 313 315 316 317 318 321 325 335 337 338 339 339 339 339
287 286 286 285 285 284 284 284 284 284 283 285 283 283 284 287 287 288 290 292 293 292 293 294 297 298 300 304 307 310 312 314 314 316 317 323 325 333 336 338 339 339 339
286 286 284 284 284 283 283 283 284 282 283 283 281 280 279 282 285 285 286 287 287 290 292 292 291 292 293 295 298 303 306 309 311 312 315 315 317 326 332 336 339 339 339
286 285 284 283 283 283 282 282 282 282 281 282 282 280 277 277 279 283 284 285 286 287 287 289 291 292 292 293 294 297 299 300 303 306 306 308 310 315 323 333 336 339 339
284 285 284 283 282 282 282 282 284 282 281 280 281 284 281 280 277 276 282 283 285 286 286 287 288 289 290 290 292 294 297 300 303 304 305 307 308 311 315 323 333 337 338
284 284 284 283 281 281 281 281 281 281 281 280 280 280 280 280 280 277 276 278 282 284 285 286 286 286 287 287 287 290 293 295 296 297 299 306 308 311 311 315 322 332 336
282 282 283 281 281 281 280 281 281 281 280 280 280 280 279 278 277 277 276 277 277 280 282 283 283 284 285 285 287 289 290 291 294 296 297 301 304 304 305 309 314 322 332
280 280 281 280 280 280 280 280 280 280 280 279 279 278 279 279 280 279 278 277 276 278 279 281 282 282 284 284 285 287 287 291 293 294 296 299 301 306 307 308 309 315 323
280 281 280 279 279 279 279 279 279 279 279 280 279 279 279 279 280 279 278 276 274 275 277 277 281 281 282 282 283 285 282 286 288 291 293 296 298 305 306 306 306 308 315
280 279 279 279 279 279 279 279 279 279 279 279 279 279 278 279 279 279 279 278 276 271 272 277 277 280 280 281 281 281 283 285 287 288 289 290 294 298 303 305 307 309 312
278 278 277 278 278 278 278 278 278 279 278 278 278 278 277 278 277 278 278 278 278 275 272 276 276 278 279 279 280 280 281 283 284 286 287 289 292 294 297 303 306 307 310
278 277 277 277 277 277 278 277 277 277 276 276 276 276 276 276 276 276 276 276 276 276 272 274 276 277 276 276 278 279 279 279 280 283 285 288 291 296 296 301 304 306 309
277 276 276 276 276 276 277 276 275 275 275 274 274 274 274 275 274 275 274 274 274 275 273 271 274 274 275 276 276 276 278 280 279 284 286 287 290 293 294 299 302 302 303
276 276 276 275 275 276 275 275 275 274 274 274 273 273 273 273 273 274 274 274 274 275 274 272 272 274 275 275 275 276 277 278 280 282 285 289 291 293 294 297 300 300 301
275 274 275 275 275 274 274 274 274 274 273 273 274 275 274 274 274 274 274 274 274 273 273 273 272 272 273 275 275 274 274 276 278 283 287 290 292 291 295 299 298 299 300
274 275 275 274 274 273 273 273 274 273 273 273 274 275 275 275 276 276 275 274 274 273 273 273 272 272 273 273 273 275 274 275 277 280 283 285 290 293 295 296 296 297 300
274 274 274 273 272 273 275 277 277 274 275 274 273 274 274 274 275 277 278 278 278 274 273 272 272 272 273 274 275 275 274 274 272 280 282 283 290 291 291 292 298 300 301
273 273 272 272 272 272 275 276 277 275 274 273 273 273 273 275 274 274 276 278 278 278 278 275 272 272 273 275 276 275 276 275 275 278 279 277 281 285 289 291 294 300 301
272 271 272 271 271 271 274 275 276 275 273 273 273 274 274 274 275 275 275 274 274 275 276 276 275 275 275 275 275 276 275 276 277 278 279 275 280 284 286 289 294 296 300
271 272 271 270 270 269 272 274 276 272 273 273 274 275 275 274 275 277 274 273 273 274 277 278 279 280 280 281 281 278 275 274 273 275 278 277 279 284 286 286 290 296 298
271 271 270 270 269 265 271 274 275 273 271 273 274 274 274 274 276 277 274 272 270 273 274 273 275 276 278 277 279 277 276 275 275 273 278 276 278 282 283 288 289 293 298
Wind_Speed
4 4 3 3 3 4 4 5 5 5 5 6 6 7 8 7 6 4 3 11 16 18 19 20 20 21 21 21 22 22 21 18 16 14 15 17 18 20 22 23 24 23 22
3 3 3 3 4 4 3 3 4 4 4 5 6 6 7 7 9 9 6 5 15 18 18 19 20 20 21 21 22 22 23 21 18 17 16 16 19 21 23 25 25 25 22
4 3 3 3 4 2 3 3 3 4 4 5 6 6 7 8 9 11 8 6 7 12 16 17 18 19 21 22 22 23 24 24 22 19 18 17 18 21 23 25 25 22 21
4 3 2 3 2 1 2 3 3 4 4 5 5 6 7 7 11 11 9 7 6 5 7 14 18 19 20 21 23 24 24 25 24 23 20 19 19 20 23 25 26 25 25
5 3 3 2 2 1 3 3 3 4 4 5 7 7 8 9 11 9 10 7 7 6 4 8 13 15 19 21 23 23 23 24 25 26 26 22 21 21 21 25 26 25 26
6 3 3 3 2 1 2 3 4 3 4 6 8 10 9 10 8 6 6 6 6 6 5 5 4 4 13 21 22 23 23 23 24 25 25 27 24 22 22 24 27 29 28
6 6 3 2 1 1 1 2 2 4 3 4 5 5 7 9 6 3 4 4 5 5 4 4 3 3 4 18 23 23 26 28 28 26 28 25 26 26 24 24 27 32 32
6 5 4 2 1 0 2 2 2 2 3 2 2 3 5 7 4 11 9 6 6 4 3 5 5 7 6 7 9 24 26 25 27 30 27 28 31 29 28 26 27 32 34
7 7 6 4 3 2 2 2 2 3 3 3 3 1 4 4 8 4 7 7 5 3 5 5 5 6 9 7 12 15 21 28 29 31 34 36 34 32 32 30 28 30 35
7 7 6 5 5 3 3 3 3 3 2 4 3 4 3 3 4 9 4 5 11 6 7 7 9 8 7 8 15 22 25 27 28 30 30 32 35 33 31 34 31 30 34
7 7 7 6 5 4 4 4 4 4 3 3 4 1 2 3 5 5 15 4 7 8 6 8 6 8 9 11 12 14 25 28 31 35 36 33 30 31 31 33 36 33 32
5 7 7 6 6 5 5 4 5 4 4 5 4 4 5 5 3 4 8 16 16 10 8 10 11 8 8 10 16 21 25 31 32 33 33 34 35 37 41 37 35 37 34
4 7 7 6 5 5 5 3 3 4 4 5 5 4 4 5 4 6 9 14 14 12 10 8 10 8 8 10 10 18 25 29 32 35 36 35 37 35 36 37 35 35 34
6 7 6 6 5 4 4 4 3 4 5 5 7 5 5 6 6 7 8 9 16 15 15 17 6 9 8 8 13 25 16 32 30 33 36 37 38 37 33 36 37 35 34
5 7 7 6 5 4 4 5 4 5 5 6 6 6 6 7 7 7 8 8 10 16 22 17 12 4 9 11 14 16 17 21 32 37 41 42 40 37 39 39 37 36 35
7 7 6 6 6 5 5 4 4 4 5 5 5 7 8 7 7 8 9 9 11 13 19 18 19 17 16 14 18 20 19 30 35 38 39 40 40 41 40 40 37 36 35
8 7 6 5 4 3 3 4 4 5 7 7 8 9 12 12 9 9 10 11 12 12 16 23 19 22 21 21 17 16 18 19 18 37 39 39 41 37 39 41 37 35 33
7 7 6 5 4 4 4 4 6 6 7 8 9 11 13 10 13 12 11 14 14 15 15 22 23 19 22 20 20 20 17 16 19 29 37 42 41 37 40 43 36 35 35
8 7 7 6 5 5 5 4 6 7 8 9 10 12 13 13 14 12 14 14 14 13 14 16 19 17 18 16 18 19 18 18 17 34 40 41 40 36 41 40 37 36 36
8 7 6 5 5 4 5 6 8 8 9 9 11 13 13 15 16 16 15 17 16 16 16 16 17 17 16 16 16 16 16 14 16 16 23 25 29 33 34 33 36 37 35
7 7 6 5 4 4 4 7 7 8 10 11 12 13 14 16 26 25 16 17 17 16 15 16 17 16 15 15 17 14 16 15 16 14 15 16 15 13 14 21 28 32 31
8 7 6 6 5 4 9 13 11 8 10 11 13 13 14 18 20 29 31 34 29 20 20 17 17 18 19 17 16 16 17 15 17 11 13 14 13 10 8 11 23 31 30
8 7 6 5 5 4 11 12 13 9 10 11 13 15 14 13 18 18 26 34 32 33 35 26 25 21 22 19 17 18 17 14 15 15 12 17 14 15 10 12 27 30 30
8 6 5 4 2 4 8 11 14 10 8 12 14 15 17 18 17 21 21 22 21 19 20 17 22 23 23 20 19 18 21 23 19 16 13 17 14 15 11 11 26 28 22
6 5 4 4 4 3 9 11 12 7 9 12 12 14 15 17 26 31 22 22 23 21 24 36 38 40 41 39 33 16 15 17 18 14 12 14 14 14 11 15 15 29 29
7 5 5 3 4 5 9 11 12 6 9 10 12 13 21 23 31 33 23 19 22 19 19 23 19 27 31 25 32 25 15 18 14 14 12 15 14 10 9 8 12 13 11
Wind_Direction
84 74 62 56 49 33 25 360 352 339 331 325 319 325 323 315 304 295 296 295 296 302 304 304 304 302 298 292 288 290 284 286 279 254 242 241 238 220 215 209 200 195 195
91 83 67 50 49 36 356 329 324 325 316 310 311 310 307 300 295 291 285 280 294 294 301 301 304 302 302 299 295 287 287 285 281 282 250 239 236 231 219 213 209 199 192
97 81 77 56 63 358 328 321 322 327 326 314 309 309 300 294 296 287 284 283 293 298 296 301 306 308 308 306 303 299 289 281 286 280 279 249 240 234 229 219 213 193 184
101 104 106 89 70 331 309 331 332 342 323 316 307 292 283 285 279 276 281 281 278 283 306 303 301 302 307 308 305 301 296 292 286 286 278 276 250 239 233 224 211 202 193
141 143 133 124 96 343 344 338 4 347 324 316 305 306 294 283 278 279 273 273 276 274 263 280 295 300 303 307 304 303 301 295 289 288 290 279 272 252 239 231 216 209 200
153 156 162 149 126 57 352 5 345 321 305 303 312 301 287 284 278 272 274 275 265 271 283 277 275 280 288 298 307 309 307 305 301 292 287 287 281 271 252 236 219 209 198
163 175 174 149 126 77 308 318 294 311 308 310 316 313 283 277 270 278 280 283 293 290 312 341 328 334 321 318 312 318 314 309 304 303 307 291 284 280 269 251 230 213 206
174 173 162 164 134 125 319 317 315 321 289 3 312 291 333 326 360 327 302 286 292 294 323 3 327 315 311 298 295 303 302 307 305 298 301 306 300 292 278 260 246 224 217
172 173 176 167 179 170 218 253 294 278 277 314 276 174 321 288 334 283 317 294 331 347 318 308 295 306 311 301 309 300 297 294 290 290 293 291 289 288 291 276 251 239 223
174 178 175 175 178 183 208 226 231 213 227 258 298 228 218 258 320 317 295 333 317 309 322 301 298 291 293 301 299 298 296 299 295 289 284 281 283 280 281 290 270 247 233
178 177 174 178 184 188 207 221 247 247 231 239 229 263 280 264 250 264 298 246 288 278 286 288 287 287 284 285 285 285 289 294 297 293 290 289 277 280 280 277 285 261 245
179 180 181 178 185 189 204 220 235 243 254 247 242 225 223 231 231 250 280 298 297 293 292 282 279 274 272 283 277 284 289 288 289 290 288 280 272 272 276 270 271 278 253
176 188 176 179 182 190 196 209 246 252 246 244 235 232 232 245 252 260 269 280 286 292 291 268 265 264 272 278 279 291 291 294 294 288 286 282 281 268 262 267 265 267 276
166 170 163 167 175 186 203 212 229 236 239 248 250 244 253 252 250 255 260 284 298 291 293 283 274 270 269 282 284 297 296 285 288 284 288 288 280 274 261 266 270 265 262
160 157 159 170 182 189 208 217 224 245 244 257 267 262 259 260 254 254 254 252 258 290 292 292 294 275 291 288 285 289 284 292 294 290 289 281 282 282 279 261 262 257 257
155 157 165 180 194 201 207 221 237 247 258 266 268 271 270 268 267 264 260 257 251 259 276 284 289 288 292 288 288 284 281 284 285 283 283 281 275 270 273 270 258 257 251
160 163 167 185 204 220 228 244 256 265 268 270 269 267 267 269 266 264 260 258 257 250 256 279 279 292 289 288 286 282 280 279 278 279 279 273 269 268 271 272 254 251 245
156 156 166 184 202 220 228 238 253 261 266 270 272 268 267 268 270 270 268 264 260 258 261 266 277 282 281 284 283 280 278 276 277 271 278 275 269 265 266 267 251 251 251
152 161 172 182 194 213 222 237 258 266 265 262 264 266 273 275 273 270 268 268 266 264 262 264 269 273 276 278 280 275 275 274 273 274 271 268 260 260 262 265 255 244 239
154 165 174 185 190 205 242 251 261 261 260 265 269 271 274 272 274 274 272 270 270 268 264 263 266 269 266 267 265 273 275 271 272 271 274 270 267 258 255 256 249 241 232
162 161 170 179 180 219 238 243 247 258 270 274 276 279 277 274 273 275 280 277 274 270 267 269 270 271 268 265 261 264 266 271 272 276 282 274 257 257 247 257 251 233 235
165 164 176 185 198 220 244 259 274 270 281 290 285 281 279 278 276 280 283 285 281 283 279 274 273 271 274 269 267 264 263 266 277 267 277 304 261 258 263 285 263 226 227
164 177 179 188 207 212 260 273 282 291 289 284 285 286 286 281 283 282 282 282 282 278 274 277 274 267 273 272 278 279 279 262 266 275 283 285 291 277 274 268 267 256 226
172 174 183 172 205 248 275 289 289 287 289 283 282 286 289 293 293 297 295 290 286 281 275 268 266 268 263 262 259 259 264 267 268 267 267 270 279 270 273 263 266 261 240
162 160 157 190 209 245 282 286 294 292 283 285 290 297 299 302 299 307 304 295 293 289 280 278 275 275 272 267 259 250 244 255 255 256 259 257 261 278 272 267 256 245 237
153 163 178 175 212 232 274 288 301 289 295 298 301 307 304 308 308 312 308 303 294 297 298 284 276 270 264 261 266 263 274 269 248 258 249 267 272 257 274 261 245 235 207